Guernsey, United Kingdom

11:49 AM BST on May 24, 2018 (GMT +0100)
Guernsey

Weather History for EGJB - December, 2012

Change the Weather History Date:

Thursday, December 27, 2012

  Actual Average Record
Temperature  
Mean Temperature 50 °F -  
Max Temperature 51 °F 45 °F 56 °F (2015)
Min Temperature 48 °F 41 °F 32 °F (1996)
Degree Days  
Heating Degree Days 16    
Moisture  
Dew Point 45 °F    
Average Humidity 84    
Maximum Humidity 94    
Minimum Humidity 73    
Precipitation  
Precipitation 0.08 in - - ()
Sea Level Pressure  
Sea Level Pressure 29.85 in    
Wind  
Wind Speed 24 mph ()    
Max Wind Speed 41 mph    
Max Gust Speed 60 mph    
Visibility 6.7 miles    
Events Rain    
Averages and records for this station are not official NWS values.
T = Trace of Precipitation, MM = Missing Value Source: Averaged Metar Reports

Daily Weather History Graph

Daily Weather History Graph

Search for Another Location

Airport or City:

Astronomy

Dec. 27, 2012 Rise Set
Actual Time 8:05 AM GMT 4:17 PM GMT
Civil Twilight 7:28 AM GMT 4:55 PM GMT
Nautical Twilight 6:47 AM GMT 5:36 PM GMT
Astronomical Twilight 6:08 AM GMT 6:15 PM GMT
Moon 3:51 PM GMT (12/27) 7:03 AM GMT (12/27)
Length of Visible Light 9h 27m
Length of Day
8h 11m
Waxing Gibbous, 99% of the Moon is Illuminated
Dec 27
Waxing Gibbous
Dec 28
Full
Jan 5
Last Quarter
Jan 11
New
Jan 18
First Quarter

Hourly Weather History & Observations

Time (GMT) Temp. Dew Point Humidity Pressure Visibility Wind Dir Wind Speed Gust Speed Precip Events Conditions
12:00 AM 51 °F 46 °F 76% 29.81 in 12 mi WSW 20.7 mph - -   Partly Cloudy
3:00 AM 51 °F 49 °F 89% 29.74 in 16 mi SW 19.6 mph - -   Mostly Cloudy
3:50 AM 51.8 °F 48.2 °F 88% 29.71 in 6.2 mi WSW 16.1 mph - N/A   Mostly Cloudy
4:20 AM 51.8 °F 50.0 °F 94% 29.68 in 6.2 mi SW 16.1 mph - N/A   Mostly Cloudy
4:50 AM 51.8 °F 50.0 °F 94% 29.68 in 6.2 mi SW 18.4 mph - N/A   Mostly Cloudy
5:20 AM 51.8 °F 50.0 °F 94% 29.65 in 6.2 mi WSW 21.9 mph 34.5 mph N/A   Mostly Cloudy
5:50 AM 51.8 °F 48.2 °F 88% 29.65 in 6.2 mi SW 21.9 mph - N/A   Scattered Clouds
6:00 AM 51 °F 49 °F 90% 29.66 in 9 mi SW 21.9 mph - -   Partly Cloudy
6:20 AM 51.8 °F 50.0 °F 94% 29.62 in 6.2 mi SW 25.3 mph 40.3 mph N/A   Mostly Cloudy
6:50 AM 48.2 °F 46.4 °F 93% 29.62 in 5.0 mi WSW 35.7 mph 51.8 mph N/A Rain Rain Showers
7:20 AM 50.0 °F 46.4 °F 87% 29.62 in 6.2 mi WSW 32.2 mph 47.2 mph N/A Rain Light Rain Showers
7:50 AM 48.2 °F 42.8 °F 82% 29.62 in 6.2 mi West 31.1 mph - N/A   Partly Cloudy
8:20 AM 48.2 °F 42.8 °F 82% 29.65 in 6.2 mi West 39.1 mph - N/A   Partly Cloudy
8:50 AM 50.0 °F 42.8 °F 76% 29.65 in 6.2 mi West 32.2 mph 43.7 mph N/A   Scattered Clouds
9:20 AM 50.0 °F 42.8 °F 76% 29.68 in 5.6 mi West 39.1 mph 52.9 mph N/A Rain Light Rain Showers
9:50 AM 48.2 °F 44.6 °F 87% 29.68 in 6.2 mi West 32.2 mph 43.7 mph N/A   Partly Cloudy
10:20 AM 50.0 °F 44.6 °F 82% 29.71 in 6.2 mi West 38.0 mph 59.8 mph N/A Rain Light Rain Showers
10:50 AM 50.0 °F 44.6 °F 82% 29.71 in 6.2 mi West 40.3 mph 55.2 mph N/A   Scattered Clouds
11:20 AM 50.0 °F 44.6 °F 82% 29.71 in 6.2 mi West 39.1 mph 51.8 mph N/A   Scattered Clouds
11:50 AM 48.2 °F 46.4 °F 93% 29.74 in 6.2 mi West 40.3 mph 57.5 mph N/A Rain Light Rain Showers
12:00 PM 48 °F 46 °F 88% 29.75 in 6 mi West 40.3 mph - - Rain Light Rain Showers
12:20 PM 48.2 °F 46.4 °F 93% 29.74 in 6.2 mi West 41.4 mph 54.1 mph N/A   Scattered Clouds
12:50 PM 50.0 °F 46.4 °F 87% 29.80 in 6.2 mi West 35.7 mph 54.1 mph N/A   Partly Cloudy
1:20 PM 50.0 °F 46.4 °F 87% 29.83 in 6.2 mi West 38.0 mph 54.1 mph N/A Rain Light Rain Showers
1:50 PM 50.0 °F 42.8 °F 76% 29.86 in 6.2 mi West 35.7 mph 51.8 mph N/A   Scattered Clouds
2:20 PM 48.2 °F 44.6 °F 87% 29.89 in 6.2 mi WNW 32.2 mph 47.2 mph N/A Rain Light Rain Showers
2:50 PM 50.0 °F 44.6 °F 82% 29.92 in 6.2 mi WNW 26.5 mph - N/A   Scattered Clouds
3:00 PM 49 °F 44 °F 78% 29.95 in 12 mi WNW 26.5 mph - - Rain Light Rain Showers
3:20 PM 48.2 °F 42.8 °F 82% 29.95 in 6.2 mi WNW 26.5 mph 38.0 mph N/A   Scattered Clouds
3:50 PM 48.2 °F 42.8 °F 82% 30.01 in 6.2 mi WNW 25.3 mph - N/A   Scattered Clouds
4:20 PM 48.2 °F 41.0 °F 76% 30.01 in 6.2 mi WNW 23.0 mph - N/A   Partly Cloudy
4:50 PM 48.2 °F 42.8 °F 82% 30.04 in 6.2 mi WNW 19.6 mph - N/A   Partly Cloudy
5:20 PM 48.2 °F 42.8 °F 82% 30.06 in 6.2 mi WNW 21.9 mph - N/A   Partly Cloudy
5:50 PM 48.2 °F 42.8 °F 82% 30.06 in 6.2 mi WNW 20.7 mph - N/A   Partly Cloudy
6:00 PM 48 °F 42 °F 73% 30.09 in 22 mi WNW 20.7 mph - -   Partly Cloudy
6:20 PM 48.2 °F 42.8 °F 82% 30.09 in 6.2 mi WNW 21.9 mph - N/A   Partly Cloudy
6:50 PM 48.2 °F 42.8 °F 82% 30.12 in 6.2 mi West 20.7 mph - N/A   Scattered Clouds
7:20 PM 48.2 °F 42.8 °F 82% 30.15 in 6.2 mi West 19.6 mph - N/A   Partly Cloudy
7:50 PM 48.2 °F 42.8 °F 82% 30.15 in 6.2 mi West 19.6 mph - N/A   Scattered Clouds
8:20 PM 48.2 °F 42.8 °F 82% 30.15 in 6.2 mi West 18.4 mph - N/A   Scattered Clouds
8:50 PM 48.2 °F 44.6 °F 87% 30.18 in 6.2 mi West 19.6 mph - N/A Rain Light Rain
9:00 PM 48 °F 45 °F 84% 30.19 in 6 mi West 19.6 mph - - Rain Light Rain